• In Uzbekistan
  • List of Countries
  • For 7 days
  • Water Temperature
  • Weather Map
  • Weather Widgets
  • user-avatar
    Login

    Hourly Weather Callao

    Today, 20 January, Monday

    Time Temperature Precipitation Wind Pressure Humidity
    00:00 +13°C° 0.3 mm 1 mps 542 mmHg 85%
    01:00 +12°C° 0.3 mm 0 mps 542 mmHg 86%
    02:00 +12°C° 0.3 mm 0 mps 541 mmHg 86%
    03:00 +12°C° 0.3 mm 0 mps 541 mmHg 85%
    04:00 +12°C° 0.3 mm 0 mps 541 mmHg 85%
    05:00 +12°C° 0.2 mm 0 mps 541 mmHg 82%
    06:00 +12°C° 0.2 mm 0 mps 542 mmHg 78%
    07:00 +14°C° 0.2 mm 1 mps 542 mmHg 75%
    08:00 +15°C° 0.2 mm 1 mps 543 mmHg 73%
    09:00 +15°C° 0.2 mm 2 mps 543 mmHg 71%
    10:00 +16°C° 0.2 mm 2 mps 544 mmHg 69%
    11:00 +16°C° 1 mm 2 mps 543 mmHg 70%
    12:00 +16°C° 1 mm 2 mps 543 mmHg 72%
    13:00 +16°C° 1 mm 2 mps 542 mmHg 74%
    14:00 +15°C° 0.7 mm 2 mps 542 mmHg 77%
    15:00 +14°C° 0.7 mm 3 mps 541 mmHg 80%
    16:00 +14°C° 0.7 mm 3 mps 541 mmHg 82%
    17:00 +14°C° 0.5 mm 2 mps 541 mmHg 84%
    18:00 +14°C° 0.5 mm 2 mps 541 mmHg 86%
    19:00 +13°C° 0.5 mm 1 mps 541 mmHg 87%
    20:00 +13°C° 0.3 mm 1 mps 541 mmHg 85%
    21:00 +13°C° 0.3 mm 1 mps 542 mmHg 83%
    22:00 +13°C° 0.3 mm 1 mps 542 mmHg 80%
    23:00 +13°C° 0.1 mm 1 mps 542 mmHg 81%

    Tomorrow, 21 January, Tuesday

    Time Temperature Precipitation Wind Pressure Humidity
    00:00 +13°C° 0.1 mm 1 mps 542 mmHg 82%
    01:00 +13°C° 0.1 mm 1 mps 542 mmHg 82%
    02:00 +13°C° 0.1 mm 1 mps 541 mmHg 83%
    03:00 +13°C° 0.1 mm 1 mps 541 mmHg 83%
    04:00 +12°C° 0.1 mm 1 mps 541 mmHg 84%
    05:00 +12°C° 0.1 mm 1 mps 541 mmHg 83%
    06:00 +13°C° 0.1 mm 1 mps 541 mmHg 83%
    07:00 +12°C° 0.1 mm 0 mps 541 mmHg 82%
    08:00 +13°C° 0.1 mm 1 mps 542 mmHg 82%
    09:00 +13°C° 0.1 mm 1 mps 542 mmHg 82%
    10:00 +13°C° 0.1 mm 1 mps 542 mmHg 81%
    11:00 +14°C° 0.4 mm 2 mps 542 mmHg 81%
    12:00 +14°C° 0.4 mm 3 mps 542 mmHg 81%
    13:00 +14°C° 0.4 mm 4 mps 541 mmHg 81%
    14:00 +13°C° 0.7 mm 4 mps 541 mmHg 85%
    15:00 +12°C° 0.7 mm 3 mps 540 mmHg 88%
    16:00 +12°C° 0.7 mm 3 mps 539 mmHg 91%
    17:00 +12°C° 0.4 mm 2 mps 540 mmHg 91%
    18:00 +12°C° 0.4 mm 2 mps 540 mmHg 90%
    19:00 +12°C° 0.4 mm 1 mps 540 mmHg 90%
    20:00 +12°C° 0.1 mm 1 mps 540 mmHg 90%
    21:00 +12°C° 0.1 mm 1 mps 541 mmHg 90%
    22:00 +12°C° 0.1 mm 1 mps 541 mmHg 90%
    23:00 +12°C° 0.2 mm 1 mps 541 mmHg 90%

    Day after tomorrow, 22 January, Wednesday

    Time Temperature Precipitation Wind Pressure Humidity
    00:00 +12°C° 0.2 mm 1 mps 540 mmHg 90%
    01:00 +12°C° 0.2 mm 1 mps 540 mmHg 91%
    02:00 +11°C° 0.2 mm 1 mps 540 mmHg 92%
    03:00 +11°C° 0.2 mm 1 mps 539 mmHg 93%
    04:00 +11°C° 0.2 mm 1 mps 539 mmHg 95%
    05:00 +11°C° 0.1 mm 1 mps 539 mmHg 94%
    06:00 +11°C° 0.1 mm 1 mps 539 mmHg 94%
    07:00 +11°C° 0.1 mm 1 mps 539 mmHg 93%
    08:00 +12°C° 0.1 mm 1 mps 540 mmHg 92%
    09:00 +12°C° 0.1 mm 2 mps 540 mmHg 90%
    10:00 +12°C° 0.1 mm 3 mps 541 mmHg 88%
    11:00 +12°C° 0.4 mm 3 mps 541 mmHg 87%
    12:00 +12°C° 0.4 mm 3 mps 540 mmHg 87%
    13:00 +12°C° 0.4 mm 3 mps 540 mmHg 87%
    14:00 +12°C° 0.8 mm 3 mps 540 mmHg 88%
    15:00 +11°C° 0.8 mm 3 mps 539 mmHg 89%
    16:00 +11°C° 0.8 mm 3 mps 539 mmHg 89%
    17:00 +11°C° 1 mm 3 mps 539 mmHg 91%
    18:00 +10°C° 1 mm 3 mps 539 mmHg 92%
    19:00 +10°C° 1 mm 3 mps 540 mmHg 94%
    20:00 +10°C° 0.6 mm 2 mps 540 mmHg 94%
    21:00 +10°C° 0.6 mm 2 mps 540 mmHg 94%
    22:00 +10°C° 0.6 mm 2 mps 540 mmHg 94%
    23:00 +10°C° 0.2 mm 2 mps 540 mmHg 93%

    23 January, Thursday

    Time Temperature Precipitation Wind Pressure Humidity
    00:00 +11°C° 0.2 mm 1 mps 540 mmHg 93%
    01:00 +11°C° 0.2 mm 1 mps 540 mmHg 93%
    02:00 +11°C° 0.1 mm 1 mps 539 mmHg 92%
    03:00 +11°C° 0.1 mm 1 mps 539 mmHg 92%
    04:00 +11°C° 0.1 mm 1 mps 539 mmHg 92%
    05:00 +11°C° 0.1 mm 1 mps 539 mmHg 92%
    06:00 +11°C° 0.1 mm 1 mps 539 mmHg 92%
    07:00 +10°C° 0.1 mm 1 mps 540 mmHg 92%
    08:00 +11°C° 0.1 mm 1 mps 540 mmHg 90%
    09:00 +12°C° 0.1 mm 2 mps 540 mmHg 88%
    10:00 +12°C° 0.1 mm 2 mps 541 mmHg 85%
    11:00 +12°C° 0.3 mm 2 mps 541 mmHg 86%
    12:00 +12°C° 0.3 mm 3 mps 540 mmHg 86%
    13:00 +12°C° 0.3 mm 3 mps 540 mmHg 86%
    14:00 +11°C° 0.8 mm 3 mps 540 mmHg 87%
    15:00 +11°C° 0.8 mm 3 mps 539 mmHg 89%
    16:00 +11°C° 0.8 mm 3 mps 538 mmHg 90%
    17:00 +10°C° 1 mm 3 mps 539 mmHg 91%
    18:00 +10°C° 1 mm 3 mps 539 mmHg 92%
    19:00 +10°C° 1 mm 2 mps 539 mmHg 93%
    20:00 +10°C° 0.5 mm 2 mps 540 mmHg 93%
    21:00 +10°C° 0.5 mm 2 mps 540 mmHg 93%
    22:00 +10°C° 0.5 mm 2 mps 540 mmHg 94%
    23:00 +11°C° 0.2 mm 1 mps 540 mmHg 94%

    24 January, Friday

    Time Temperature Precipitation Wind Pressure Humidity
    00:00 +11°C° 0.2 mm 1 mps 540 mmHg 94%
    01:00 +11°C° 0.2 mm 1 mps 540 mmHg 94%
    02:00 +11°C° 0.1 mm 1 mps 539 mmHg 94%
    03:00 +11°C° 0.1 mm 1 mps 539 mmHg 93%
    04:00 +11°C° 0.1 mm 1 mps 539 mmHg 93%
    05:00 +11°C° 0.1 mm 1 mps 539 mmHg 93%
    06:00 +11°C° 0.1 mm 1 mps 540 mmHg 92%
    07:00 +11°C° 0.1 mm 1 mps 540 mmHg 92%
    08:00 +11°C° 0.1 mm 1 mps 540 mmHg 90%
    09:00 +12°C° 0.1 mm 2 mps 541 mmHg 87%
    10:00 +12°C° 0.1 mm 2 mps 541 mmHg 85%
    11:00 +12°C° 0.2 mm 2 mps 541 mmHg 85%
    12:00 +11°C° 0.2 mm 3 mps 540 mmHg 86%
    13:00 +11°C° 0.2 mm 3 mps 540 mmHg 87%
    14:00 +11°C° 0.8 mm 3 mps 539 mmHg 88%
    15:00 +10°C° 0.8 mm 2 mps 539 mmHg 89%
    16:00 +10°C° 0.8 mm 2 mps 538 mmHg 91%
    17:00 +10°C° 0.6 mm 2 mps 539 mmHg 90%
    18:00 +11°C° 0.6 mm 1 mps 539 mmHg 90%
    19:00 +11°C° 0.6 mm 1 mps 540 mmHg 89%
    20:00 +11°C° 0.5 mm 1 mps 540 mmHg 90%
    21:00 +11°C° 0.5 mm 1 mps 540 mmHg 91%
    22:00 +11°C° 0.5 mm 1 mps 541 mmHg 91%
    23:00 +11°C° 0.4 mm 1 mps 540 mmHg 91%

    25 January, Saturday

    Time Temperature Precipitation Wind Pressure Humidity
    00:00 +11°C° 0.4 mm 1 mps 540 mmHg 91%
    01:00 +11°C° 0.4 mm 1 mps 540 mmHg 91%
    02:00 +11°C° 0.2 mm 1 mps 540 mmHg 91%
    03:00 +11°C° 0.2 mm 1 mps 540 mmHg 92%
    04:00 +10°C° 0.2 mm 1 mps 539 mmHg 93%
    05:00 +11°C° 0.3 mm 1 mps 540 mmHg 92%
    06:00 +11°C° 0.3 mm 1 mps 540 mmHg 91%
    07:00 +11°C° 0.3 mm 1 mps 541 mmHg 91%
    08:00 +11°C° 0.1 mm 1 mps 541 mmHg 89%
    09:00 +12°C° 0.1 mm 1 mps 541 mmHg 87%
    10:00 +12°C° 0.1 mm 2 mps 542 mmHg 85%
    11:00 +12°C° 0.2 mm 2 mps 542 mmHg 85%
    12:00 +12°C° 0.2 mm 3 mps 542 mmHg 85%
    13:00 +12°C° 0.2 mm 3 mps 541 mmHg 85%
    14:00 +12°C° 0.3 mm 3 mps 541 mmHg 86%
    15:00 +11°C° 0.3 mm 3 mps 540 mmHg 87%
    16:00 +11°C° 0.3 mm 3 mps 540 mmHg 88%
    17:00 +12°C° 0.4 mm 2 mps 540 mmHg 89%
    18:00 +12°C° 0.4 mm 2 mps 540 mmHg 90%
    19:00 +10°C° 0.4 mm 2 mps 541 mmHg 91%
    20:00 +10°C° 0.3 mm 2 mps 541 mmHg 90%
    21:00 +11°C° 0.3 mm 1 mps 541 mmHg 89%
    22:00 +11°C° 0.3 mm 1 mps 542 mmHg 88%
    23:00 +11°C° 0.1 mm 1 mps 541 mmHg 87%
    Show more